Vorticity
5 6 10 17 9 2 1 -3 -4 -3 -1 2 5 -1 5 7 12 3 4 4 4 4 3 4 3 3 4 3 1 7 3 1 2 1 1 2 4 4 2 0 1 5 6 4 -2 -2 -6
4 4 5 8 12 24 19 7 5 12 11 4 -0 11 2 -10 -5 4 11 4 4 6 8 6 6 4 5 -6 5 8 4 2 6 -1 2 5 5 4 -1 6 6 -3 2 5 18 10 3
9 4 4 3 9 -8 10 16 15 15 15 15 19 -0 -3 3 10 21 12 2 3 -17 -2 2 -0 -2 7 -0 2 3 3 2 5 5 1 -1 -3 1 4 -3 4 4 -1 1 -14 -7 -2
6 10 10 5 2 -2 -1 2 4 5 8 12 16 13 7 7 5 4 2 1 2 24 16 -3 3 8 -1 0 4 5 7 2 5 5 8 9 8 9 13 11 7 14 14 17 13 11 6
2 3 5 8 9 6 3 2 2 3 3 4 9 14 14 11 8 7 9 14 14 5 1 3 -2 4 -2 -1 -2 1 4 3 1 1 -1 3 2 -0 6 1 2 8 1 2 -1 3 10
3 2 2 3 4 8 10 8 7 4 2 4 4 5 9 12 13 12 12 12 11 13 15 16 18 18 22 20 25 21 22 22 17 11 5 8 8 15 7 7 17 18 21 7 13 18 16
4 3 4 4 3 4 4 6 8 10 12 12 9 5 3 2 6 7 8 6 6 8 7 9 10 10 10 9 11 12 9 7 12 12 14 14 16 19 17 20 15 14 25 39 26 10 11
6 5 2 4 4 4 5 4 3 3 4 10 10 18 17 5 14 13 14 6 10 8 7 9 7 10 16 20 12 9 10 11 10 12 9 10 6 8 5 6 8 8 11 14 13 13 11
7 12 6 4 4 4 3 5 4 5 6 4 6 3 -11 6 13 -4 12 16 -5 20 19 12 6 10 4 2 18 13 9 8 10 6 8 8 7 6 10 9 10 10 12 14 11 11 9
17 16 10 10 7 5 3 4 5 6 6 6 8 1 2 6 5 9 17 -1 17 12 9 -8 16 7 -6 9 4 1 8 2 -5 4 10 13 12 13 13 8 10 11 9 8 9 9 8
8 12 17 17 9 6 5 4 3 5 5 3 9 1 17 17 8 10 39 12 13 2 11 2 -1 8 -5 3 7 2 4 4 -0 7 6 17 15 20 16 23 16 14 11 12 10 9 12
6 4 9 12 21 10 9 6 6 6 5 3 4 3 -19 1 9 7 20 -2 18 33 10 -0 8 40 9 9 15 3 2 5 3 -1 9 6 6 6 20 6 9 11 11 14 18 17 10
8 10 4 7 10 16 15 10 7 8 9 6 5 6 10 4 8 5 5 8 27 -20 -12 9 17 20 16 11 7 16 16 4 -7 3 19 14 18 23 14 19 16 9 0 -18 -4 4 20
13 7 7 7 7 7 12 15 11 12 7 7 7 8 5 8 14 -12 -1 9 5 18 -7 6 21 13 2 12 8 -19 -15 2 16 24 6 0 -0 -7 -11 -13 -1 -11 -8 -1 15 13 -4
14 20 28 8 7 7 7 9 12 12 11 8 8 3 7 10 17 -16 -14 25 -42 -0 2 -10 -4 1 13 -6 -14 7 3 8 13 5 3 4 5 3 -0 2 9 25 3 18 9 8 -4
19 39 42 24 7 8 10 8 9 11 14 14 9 9 8 -38 -14 43 -17 12 45 20 28 14 5 -3 1 -21 7 6 9 13 15 7 6 -10 -5 6 8 5 3 6 14 5 2 -6 9
-0 -13 15 23 50 30 8 10 6 11 16 5 14 8 8 10 13 -24 7 -10 -6 -13 -34 -26 -1 20 11 -6 16 -13 -7 3 -0 -18 -13 0 9 13 12 12 9 9 3 1 13 7 6
42 4 11 15 43 40 40 -2 21 15 29 11 18 2 4 15 16 12 12 6 -8 -14 -5 15 1 17 10 -9 -5 16 15 17 8 -1 1 9 4 -2 6 4 9 13 11 10 8 8 4
13 14 9 22 37 22 37 43 -0 31 21 11 0 8 12 -12 72 19 51 28 27 27 27 26 27 23 26 11 -26 -4 -7 0 -5 11 2 3 7 4 20 21 16 9 3 10 3 11 6
5 19 16 11 21 -7 -4 11 11 29 -13 26 48 -14 31 69 -61 10 -5 0 -10 45 10 5 -1 -8 -5 -9 -0 11 -5 7 27 24 25 24 4 6 15 23 15 15 9 17 10 5 8
2 22 23 -43 28 -6 60 7 -2 9 -30 39 -21 46 14 13 23 53 47 10 28 -17 -23 9 24 24 20 20 23 18 13 17 16 12 9 5 15 16 15 13 16 9 5 8 12 10 11
14 17 23 42 25 37 -37 3 16 -4 20 35 31 -8 30 4 7 -8 -3 1 0 18 6 9 1 15 18 18 11 13 11 18 13 9 1 9 6 10 9 10 17 9 7 14 10 10 14
27 26 -9 -7 -8 20 46 24 20 27 6 -10 10 0 36 -22 -12 -11 2 3 -3 25 31 17 26 20 17 14 16 18 16 14 4 7 10 15 9 7 9 6 11 4 18 13 10 5 12
11 15 25 29 33 3 36 17 23 -3 -19 -8 2 -3 -9 -21 16 19 21 14 35 10 10 6 15 14 11 13 5 -3 8 18 20 11 8 23 22 18 13 -1 10 9 4 9 10 13 9
20 14 10 10 11 2 2 7 6 9 10 12 13 13 16 13 17 13 26 12 4 7 20 -15 -15 9 10 -10 -12 4 4 10 9 15 12 -8 -2 5 9 6 15 12 4 3 12 19 11
7 4 7 5 -1 4 6 8 6 1 -1 2 2 3 7 5 14 15 13 34 2 -10 -17 -5 12 7 -4 -5 8 18 28 30 18 6 7 15 17 1 4 1 4 9 9 4 13 18 16
6 7 6 7 8 10 6 1 8 11 10 5 5 9 19 21 19 16 16 18 20 25 33 13 -1 6 10 13 27 16 3 19 21 27 26 9 -3 2 -5 6 16 16 6 -1 4 26 14
1 -3 8 11 22 12 13 11 14 14 12 10 11 21 13 16 13 17 11 17 10 13 18 18 15 17 14 10 13 -2 4 -7 -4 -13 -13 -15 -4 5 8 3 5 13 11 14 13 8 9
16 13 9 9 13 24 18 18 29 31 24 29 18 14 23 27 48 41 21 10 12 18 0 27 19 21 17 21 17 12 -14 -12 -4 10 1 13 21 24 11 8 19 17 20 13 10 8 15
Height
5708 5715 5720 5727 5733 5741 5747 5754 5759 5765 5770 5775 5780 5785 5789 5793 5797 5800 5804 5807 5811 5816 5819 5821 5825 5829 5832 5836 5839 5836 5842 5845 5845 5848 5849 5850 5852 5853 5854 5856 5855 5855 5856 5858 5860 5860 5860
5692 5700 5707 5712 5720 5725 5734 5740 5746 5752 5757 5761 5767 5773 5778 5781 5786 5791 5794 5797 5801 5805 5809 5812 5815 5819 5824 5829 5826 5827 5832 5835 5836 5838 5840 5840 5842 5843 5845 5846 5846 5846 5847 5850 5851 5852 5853
5675 5683 5692 5699 5707 5709 5718 5726 5732 5738 5744 5748 5753 5760 5766 5771 5776 5780 5784 5789 5791 5795 5797 5800 5804 5808 5813 5821 5816 5821 5823 5824 5826 5828 5831 5831 5832 5834 5835 5838 5836 5837 5838 5841 5844 5843 5841
5657 5665 5675 5684 5692 5699 5706 5713 5719 5725 5732 5737 5740 5746 5752 5757 5762 5767 5771 5776 5780 5783 5788 5791 5795 5797 5803 5804 5808 5811 5811 5816 5817 5818 5821 5820 5822 5824 5827 5827 5828 5826 5828 5832 5836 5830 5830
5636 5646 5656 5665 5675 5682 5691 5699 5706 5713 5719 5725 5730 5734 5740 5744 5748 5754 5759 5763 5766 5771 5774 5779 5784 5787 5792 5793 5795 5800 5801 5803 5805 5808 5808 5809 5811 5813 5814 5813 5815 5816 5818 5818 5819 5817 5815
5615 5626 5636 5647 5657 5666 5675 5684 5692 5699 5705 5711 5717 5724 5728 5732 5736 5741 5747 5750 5754 5758 5761 5766 5771 5777 5779 5780 5784 5788 5789 5791 5793 5794 5796 5798 5798 5800 5801 5801 5804 5803 5801 5803 5805 5808 5802
5593 5605 5616 5627 5639 5649 5658 5668 5676 5684 5691 5699 5705 5711 5716 5721 5726 5731 5736 5738 5744 5748 5753 5757 5760 5764 5766 5768 5773 5777 5780 5781 5782 5785 5784 5784 5788 5789 5789 5789 5790 5789 5788 5791 5792 5791 5791
5571 5584 5597 5609 5620 5632 5642 5651 5661 5671 5678 5686 5693 5698 5704 5709 5714 5718 5723 5728 5732 5737 5739 5744 5748 5754 5755 5754 5763 5767 5768 5771 5772 5775 5775 5777 5780 5778 5777 5778 5779 5779 5780 5782 5784 5783 5780
5549 5562 5576 5590 5602 5614 5625 5636 5646 5655 5665 5673 5680 5687 5692 5698 5703 5707 5713 5716 5719 5723 5722 5733 5737 5741 5746 5747 5752 5756 5757 5759 5762 5765 5766 5768 5771 5768 5769 5769 5769 5770 5769 5770 5771 5771 5771
5527 5541 5555 5569 5583 5596 5609 5620 5630 5640 5651 5659 5667 5676 5680 5687 5691 5698 5702 5705 5709 5713 5706 5721 5726 5734 5734 5735 5743 5745 5746 5750 5751 5755 5755 5758 5759 5758 5758 5759 5761 5763 5760 5759 5761 5762 5764
5505 5520 5534 5549 5563 5577 5590 5603 5614 5625 5636 5647 5655 5662 5669 5676 5682 5687 5693 5695 5699 5702 5688 5704 5710 5717 5722 5726 5734 5735 5735 5737 5742 5743 5745 5748 5748 5749 5750 5751 5752 5753 5753 5754 5754 5754 5755
5485 5499 5514 5528 5542 5557 5571 5583 5597 5610 5620 5631 5641 5652 5659 5659 5670 5679 5680 5683 5686 5686 5677 5689 5700 5702 5707 5714 5720 5725 5724 5728 5732 5733 5735 5738 5739 5739 5742 5742 5743 5744 5745 5746 5747 5747 5749
5465 5480 5494 5510 5525 5538 5553 5567 5580 5593 5604 5615 5626 5637 5644 5649 5661 5668 5673 5673 5669 5666 5676 5683 5691 5693 5697 5704 5709 5713 5713 5718 5722 5723 5726 5729 5730 5730 5733 5735 5736 5739 5738 5738 5739 5741 5747
5446 5462 5475 5491 5508 5522 5537 5550 5564 5577 5590 5602 5611 5620 5627 5636 5646 5656 5656 5653 5647 5660 5665 5673 5679 5684 5689 5693 5699 5702 5704 5707 5709 5713 5716 5720 5724 5724 5728 5729 5730 5730 5732 5732 5729 5729 5736
5431 5445 5458 5474 5490 5505 5521 5535 5549 5561 5575 5589 5598 5601 5609 5621 5631 5639 5639 5636 5636 5653 5656 5661 5666 5674 5679 5682 5690 5691 5694 5698 5700 5703 5708 5709 5711 5713 5716 5720 5717 5720 5716 5720 5717 5720 5722
5416 5433 5445 5458 5473 5491 5507 5520 5533 5548 5559 5572 5579 5586 5597 5599 5615 5618 5618 5619 5634 5643 5643 5642 5650 5663 5671 5673 5677 5680 5679 5687 5689 5692 5696 5696 5700 5698 5703 5705 5703 5704 5709 5707 5705 5709 5710
5413 5424 5435 5447 5460 5477 5494 5507 5519 5533 5546 5555 5562 5571 5580 5591 5598 5597 5596 5612 5621 5626 5629 5632 5638 5650 5657 5661 5663 5663 5667 5674 5676 5681 5683 5685 5688 5688 5691 5692 5693 5693 5696 5696 5697 5697 5697
5406 5420 5430 5440 5452 5466 5480 5495 5509 5520 5532 5539 5545 5558 5567 5575 5578 5577 5585 5603 5615 5613 5617 5617 5629 5637 5641 5648 5649 5651 5654 5656 5659 5666 5671 5675 5675 5677 5678 5677 5681 5680 5684 5685 5683 5685 5685
5406 5418 5426 5435 5447 5460 5472 5488 5500 5509 5516 5525 5535 5545 5552 5560 5559 5566 5575 5585 5597 5598 5604 5607 5616 5623 5628 5634 5637 5635 5637 5639 5645 5649 5657 5659 5661 5666 5671 5662 5664 5668 5671 5671 5669 5671 5672
5404 5414 5423 5432 5441 5453 5465 5480 5489 5491 5500 5515 5527 5529 5542 5545 5545 5557 5568 5574 5580 5588 5591 5595 5604 5610 5616 5620 5623 5621 5622 5627 5631 5637 5643 5647 5648 5651 5655 5652 5650 5655 5657 5661 5657 5657 5656
5407 5413 5420 5425 5437 5449 5457 5468 5476 5487 5494 5506 5508 5513 5526 5532 5543 5548 5556 5564 5570 5575 5574 5582 5590 5599 5604 5607 5612 5603 5608 5615 5620 5625 5628 5630 5634 5638 5640 5638 5639 5644 5651 5650 5644 5644 5640
5404 5412 5418 5425 5431 5438 5448 5454 5464 5473 5485 5493 5499 5506 5511 5520 5526 5534 5539 5549 5556 5558 5563 5568 5580 5589 5590 5592 5595 5595 5595 5602 5606 5612 5615 5618 5620 5624 5626 5625 5625 5630 5638 5633 5633 5634 5633
5405 5411 5417 5423 5429 5435 5441 5448 5458 5460 5472 5473 5482 5491 5502 5509 5517 5523 5529 5536 5545 5549 5550 5557 5567 5572 5571 5575 5580 5585 5587 5592 5595 5602 5604 5607 5609 5610 5611 5613 5611 5617 5628 5625 5620 5619 5618
5404 5409 5415 5420 5426 5430 5435 5441 5448 5455 5460 5466 5475 5482 5492 5501 5508 5516 5519 5527 5533 5538 5540 5548 5555 5557 5560 5565 5570 5574 5579 5581 5583 5588 5592 5593 5595 5595 5597 5597 5597 5614 5613 5604 5604 5605 5606
5407 5411 5416 5419 5425 5430 5433 5438 5445 5450 5456 5463 5470 5478 5484 5490 5496 5504 5511 5516 5518 5525 5532 5539 5545 5551 5552 5556 5559 5562 5567 5572 5572 5575 5581 5581 5580 5583 5583 5582 5587 5600 5603 5590 5585 5590 5592
5404 5407 5411 5416 5420 5426 5432 5437 5442 5447 5451 5456 5462 5469 5475 5480 5487 5491 5496 5506 5510 5515 5519 5527 5532 5539 5542 5546 5549 5550 5554 5561 5561 5564 5569 5570 5571 5572 5572 5569 5573 5593 5585 5579 5570 5579 5579
5402 5405 5406 5408 5411 5415 5419 5426 5433 5439 5440 5445 5452 5459 5462 5469 5473 5480 5486 5491 5497 5501 5511 5518 5523 5524 5527 5533 5535 5538 5541 5547 5550 5553 5559 5558 5558 5558 5562 5557 5561 5580 5570 5565 5560 5567 5566
5397 5401 5406 5409 5411 5412 5414 5416 5420 5424 5425 5434 5439 5445 5454 5460 5465 5470 5472 5479 5483 5487 5497 5508 5510 5511 5517 5522 5524 5527 5529 5534 5537 5542 5543 5545 5545 5546 5545 5544 5551 5561 5560 5553 5551 5550 5553
5389 5393 5397 5401 5404 5409 5413 5418 5423 5424 5428 5433 5436 5441 5444 5451 5459 5463 5467 5471 5477 5482 5489 5494 5495 5501 5504 5508 5512 5512 5518 5522 5527 5529 5533 5531 5533 5532 5531 5533 5541 5541 5542 5538 5538 5540 5542